Wind_Speed
31 28 27 28 28 29 28 28 28 27 26 24 23 21 19 18 17 16 15 15 15 15 16 16 15 15 15 15 15 15 15 15 15 15 15 15 15 14 13 11 10 9 9 8 8 7 8 8 9 10 11 11 12 11 10 10 10 11 11 13 14 13 12 10 9 8 8 8 8 7 8 8 8 8 8 7 7 6 4 4 3 1 1 2 2
31 29 28 28 29 29 29 27 27 26 25 23 21 19 18 17 16 15 14 14 15 16 16 16 15 15 15 15 15 15 16 15 15 15 14 15 14 13 12 11 9 9 9 9 9 8 9 9 10 11 11 12 13 12 12 12 12 12 12 14 15 14 12 11 9 9 8 7 7 7 8 8 8 8 8 7 7 6 6 5 4 2 2 2 2
30 30 29 29 30 30 29 27 26 25 24 22 20 18 17 16 15 14 14 14 16 17 16 16 15 15 15 14 15 15 16 15 15 14 14 14 13 11 11 10 9 9 9 10 10 9 10 10 10 11 12 13 14 14 13 13 13 12 12 13 14 14 12 11 11 10 9 7 6 6 6 7 7 8 8 8 8 7 6 6 4 3 3 3 2
30 30 29 30 30 29 28 26 25 24 22 20 19 17 16 15 14 14 15 15 16 17 16 16 15 14 14 14 14 15 15 15 15 14 13 13 11 10 10 9 9 9 10 10 10 10 10 10 11 12 13 13 15 14 14 14 13 13 13 13 14 13 12 12 11 10 9 8 7 5 5 7 7 8 8 8 8 8 6 6 5 5 4 3 2
30 30 30 30 29 28 27 26 24 23 21 19 18 17 16 15 15 15 15 16 17 16 16 15 14 13 13 14 14 15 15 15 14 13 13 12 11 10 10 9 9 8 9 11 11 11 11 11 12 12 12 13 15 15 14 14 13 13 13 14 13 13 13 13 12 11 10 9 9 7 6 7 8 9 9 9 9 8 7 6 6 6 5 4 4
30 30 30 30 30 28 26 25 24 22 20 19 17 16 15 15 15 15 16 16 16 16 15 14 14 13 13 14 15 15 15 15 14 13 12 12 11 10 10 9 9 9 10 11 12 12 12 11 12 12 12 13 14 15 15 14 13 12 13 13 13 13 13 12 11 11 10 10 9 8 8 9 10 10 10 9 9 9 8 8 8 8 7 5 6
29 29 29 29 29 28 26 25 23 21 19 18 16 16 15 15 15 15 16 16 15 15 14 13 13 13 14 15 15 15 15 14 14 13 12 12 12 12 11 11 11 11 12 13 13 13 13 12 12 12 12 13 14 14 14 14 13 13 14 14 13 13 12 12 11 11 11 11 9 8 9 10 11 10 11 10 10 10 9 10 10 9 8 6 6
28 28 29 28 28 27 25 24 22 20 18 17 16 15 15 15 15 15 16 15 15 14 13 13 14 14 15 15 15 15 15 14 14 13 13 13 13 13 13 13 13 13 13 14 14 13 13 12 12 12 12 12 13 13 14 13 13 13 14 13 13 12 12 12 11 12 12 11 9 9 10 11 11 11 12 12 11 10 10 10 11 10 9 7 7
28 28 28 27 26 25 24 23 21 19 18 17 15 15 15 15 16 15 15 14 14 13 14 15 15 15 16 16 16 16 15 15 14 14 14 14 14 13 13 14 14 14 14 14 14 13 13 13 12 12 12 12 12 12 13 13 12 13 13 13 12 12 12 13 12 12 12 12 11 11 11 12 12 12 12 13 12 11 11 10 11 10 9 8 6
28 28 27 26 25 24 23 22 20 19 17 16 15 15 16 16 15 15 15 14 14 14 15 16 16 16 16 16 16 16 15 15 15 15 15 14 14 14 14 14 14 14 14 14 14 13 13 13 12 12 11 12 12 12 12 12 12 12 12 12 12 12 12 13 12 12 12 13 13 13 14 14 14 13 13 13 12 11 11 11 11 10 10 8 6
27 27 26 25 25 24 22 22 20 18 17 16 16 16 17 16 16 15 15 15 15 16 16 16 16 17 17 17 17 17 16 16 15 15 15 14 14 14 14 14 14 14 13 13 13 13 13 13 12 11 11 12 11 11 11 11 12 12 12 12 12 12 12 12 12 12 12 14 14 14 15 15 14 14 14 13 12 11 11 11 10 9 10 8 6
27 26 25 25 24 23 22 21 19 17 16 15 16 16 17 17 16 16 15 16 16 17 17 17 17 18 18 18 18 17 17 16 16 15 15 15 15 15 14 14 14 13 13 13 13 13 12 12 11 11 11 11 11 11 10 11 11 11 11 12 12 12 12 12 11 11 11 13 14 14 15 14 13 13 14 13 12 11 10 10 9 8 8 7 6
27 25 25 24 24 23 22 20 18 17 16 15 16 17 18 17 17 16 16 17 17 17 18 18 18 18 18 18 18 17 17 16 15 15 14 14 14 14 14 14 13 13 13 12 12 12 12 12 12 11 11 11 11 11 10 10 10 10 11 11 12 11 11 11 10 10 11 12 12 13 13 13 12 12 12 12 12 11 10 9 8 7 7 7 6
25 25 24 24 24 23 21 20 18 16 15 15 17 18 18 18 17 17 17 17 17 18 18 18 18 18 18 17 17 16 16 15 15 15 14 15 15 15 15 14 14 13 13 13 12 12 12 12 12 12 11 11 10 10 10 10 10 10 10 11 11 11 10 10 10 11 11 10 11 11 11 11 11 11 11 11 11 10 9 9 8 7 7 7 7
24 24 24 24 24 23 21 19 17 16 15 16 18 19 19 18 18 18 17 18 18 19 19 18 17 17 17 16 17 16 16 16 16 16 16 17 16 16 15 15 14 14 14 13 13 12 12 12 12 12 11 11 10 10 9 10 10 10 11 11 10 10 10 9 9 10 10 10 10 9 9 9 9 9 9 9 10 9 8 8 7 7 7 7 7
23 23 24 24 23 23 22 20 17 16 16 18 19 19 19 19 18 18 18 18 19 19 18 17 16 16 16 16 16 17 17 18 18 18 18 18 17 16 15 15 14 14 13 13 13 12 12 12 12 12 12 11 11 10 9 9 10 10 10 11 10 10 10 9 8 9 9 9 9 8 8 8 7 7 7 7 8 7 7 7 7 6 6 6 6
23 22 23 23 23 23 22 20 18 17 18 19 20 19 19 19 19 18 18 18 18 18 17 16 15 15 15 16 17 18 19 19 19 19 18 18 17 17 17 16 16 15 14 14 13 13 13 13 13 13 13 12 11 10 10 9 9 9 9 10 10 9 9 9 9 8 8 8 8 7 7 7 6 6 6 5 6 6 5 5 5 6 5 5 5
23 22 22 23 23 22 21 19 18 17 19 20 20 20 19 19 19 18 18 17 17 17 16 15 15 15 15 16 17 18 19 19 19 18 18 18 18 18 18 18 17 17 16 15 15 15 15 14 14 13 12 12 11 11 10 10 9 8 8 9 10 8 8 9 9 9 8 8 7 7 6 6 6 5 5 4 4 4 4 3 3 4 5 4 4
23 23 23 23 23 22 20 18 17 18 20 20 20 20 19 19 19 18 18 17 16 15 15 14 14 14 15 16 17 18 18 18 18 18 18 18 18 18 18 18 17 17 17 17 17 16 16 16 16 15 13 11 10 10 10 10 10 8 7 8 9 9 9 9 9 9 9 8 7 7 6 6 6 6 5 4 4 3 3 3 2 2 3 3 3
25 23 23 23 23 21 20 18 17 18 20 19 19 19 19 19 19 18 18 17 15 14 14 14 14 15 15 16 17 17 17 17 17 17 18 18 17 17 17 16 16 17 17 16 16 16 16 16 16 16 15 14 12 10 10 10 10 9 8 8 8 9 9 9 8 8 9 8 8 8 8 7 7 7 7 6 5 5 4 4 3 3 2 2 2
26 25 24 24 23 21 19 17 17 19 20 19 19 19 19 19 19 18 17 16 15 14 14 13 14 15 16 17 17 17 17 17 17 17 17 17 16 16 15 15 15 15 15 14 14 15 14 15 15 15 16 16 16 13 10 10 9 9 9 9 8 8 9 9 8 8 8 9 8 8 8 8 7 8 8 9 8 7 6 5 4 4 4 3 2
27 26 25 24 23 21 20 17 18 19 20 19 19 19 19 19 19 18 17 16 15 14 13 13 14 14 15 16 16 16 16 16 16 16 16 15 15 14 14 14 13 13 13 13 13 13 13 13 14 14 15 16 16 15 12 10 10 9 9 10 8 8 8 8 8 7 8 8 8 8 7 7 7 7 8 9 10 9 8 6 5 5 5 4 3
26 26 26 25 23 21 20 18 17 19 20 19 19 18 18 18 18 17 16 15 15 14 14 13 13 14 15 15 15 15 15 15 15 15 14 14 13 13 13 12 11 11 12 12 11 12 12 12 13 13 14 15 15 14 13 11 10 10 10 10 9 8 7 7 7 7 6 7 7 7 7 6 7 7 8 9 10 10 8 7 6 6 6 5 5
24 24 25 25 23 22 20 18 17 18 19 19 18 18 18 18 17 16 15 15 15 14 14 13 13 14 15 15 15 15 15 15 14 13 13 12 11 11 11 10 10 10 11 12 11 11 11 11 12 12 12 13 14 14 12 11 10 10 10 10 8 8 7 6 6 6 5 5 6 6 6 6 6 7 7 8 9 9 9 8 8 8 8 7 6
23 23 23 24 23 22 20 18 18 18 19 18 18 18 18 17 17 16 15 15 15 14 14 14 14 14 15 15 16 15 14 14 13 12 11 10 10 11 10 9 10 10 11 12 12 11 11 10 11 11 11 12 12 13 12 10 10 10 9 9 8 8 7 6 6 5 5 4 4 5 5 5 5 6 7 8 9 9 9 9 8 8 9 9 9
23 22 22 23 22 21 20 18 18 19 19 18 18 17 17 17 16 16 15 15 14 14 13 13 14 14 15 15 15 14 13 12 12 11 11 10 10 10 10 9 9 10 10 11 11 11 11 11 10 10 10 10 10 11 11 10 9 9 9 9 9 8 7 6 5 5 4 4 4 4 4 4 4 5 6 7 8 8 8 8 8 8 8 8 9
21 21 22 22 20 20 20 19 18 19 20 19 18 18 17 17 16 16 15 14 14 14 14 13 14 14 15 14 13 13 12 11 11 11 10 9 10 10 9 9 10 10 11 11 11 11 11 10 10 9 9 9 9 10 9 9 9 9 8 8 9 10 8 6 5 4 4 4 3 3 2 3 3 4 5 6 7 7 7 7 7 7 7 7 7
20 20 22 21 20 19 19 19 19 19 19 19 19 18 18 17 16 16 15 14 14 13 13 13 13 14 14 14 12 12 11 11 11 10 10 10 10 10 9 9 9 10 10 10 10 9 9 9 8 8 8 8 8 8 8 9 10 10 9 8 10 11 9 7 6 4 4 4 4 3 2 2 2 3 4 5 6 6 6 6 6 6 6 6 6
20 20 21 21 19 19 19 19 19 19 19 19 19 18 18 17 16 16 15 14 14 13 13 13 13 14 14 13 12 11 10 11 11 10 10 10 9 10 9 8 8 8 9 9 9 8 8 8 8 8 8 9 9 8 8 8 8 9 10 8 10 11 9 8 7 5 5 4 4 3 2 2 2 3 3 3 4 4 5 5 6 6 6 6 6
20 20 20 20 19 19 19 19 19 19 19 19 19 19 18 17 16 15 15 14 14 13 13 12 13 13 12 11 11 10 8 9 10 9 10 10 9 10 9 8 7 7 8 8 8 8 8 8 7 7 8 9 9 8 7 8 7 8 10 10 10 10 10 8 6 6 6 5 4 4 4 4 4 3 3 3 3 3 4 4 5 6 6 6 6
20 20 20 20 20 19 19 18 19 20 19 19 18 18 18 17 17 16 15 14 13 13 13 12 12 12 11 10 9 9 8 8 8 8 9 8 8 9 8 8 7 7 7 7 7 7 8 8 6 7 8 8 8 8 6 7 8 9 11 11 10 10 11 9 7 5 5 5 4 4 5 6 5 3 2 2 2 2 3 3 4 5 5 6 6
19 19 19 19 20 19 18 18 19 20 20 20 19 18 19 18 17 16 15 14 13 12 12 12 12 11 11 10 9 8 6 6 7 7 7 7 7 8 8 7 6 6 6 7 7 6 7 8 6 6 7 8 9 8 6 7 8 9 10 10 9 9 9 9 8 6 4 4 4 5 6 7 6 4 2 1 1 2 2 2 2 3 3 4 5
19 19 19 19 19 19 18 18 18 20 20 20 20 18 18 18 16 16 15 14 13 12 12 12 12 11 10 10 9 7 6 5 5 5 6 6 6 6 7 7 6 6 5 6 6 5 6 7 6 6 6 7 8 6 6 6 7 8 9 8 8 7 8 9 8 7 5 4 3 4 4 6 6 5 3 2 2 2 2 1 1 1 2 2 3
19 19 20 19 19 20 18 19 19 19 20 21 20 19 19 18 16 16 15 14 13 12 12 12 12 12 10 9 9 8 6 5 5 5 4 4 5 5 5 6 5 5 5 4 5 5 6 6 7 7 7 7 6 5 6 6 7 8 7 7 7 4 6 8 8 7 4 3 3 3 4 5 5 5 4 3 3 3 3 2 0 1 1 1 1
19 19 20 20 20 20 19 19 19 19 20 21 21 20 18 18 16 15 15 14 13 13 12 12 12 12 10 9 8 8 6 6 5 5 4 4 4 4 3 4 4 4 4 4 5 5 5 6 7 6 7 7 6 6 7 6 7 7 6 6 5 3 6 6 5 5 2 2 2 2 2 3 4 3 2 2 3 3 3 3 2 0 2 2 1
20 19 19 20 20 20 19 19 19 20 20 20 21 20 18 18 17 15 15 15 14 13 13 12 13 11 10 9 8 7 7 6 5 5 5 4 4 3 3 3 3 3 4 4 4 4 5 6 6 6 6 6 6 6 6 6 6 6 6 5 4 4 7 6 4 3 2 3 2 2 1 1 2 2 2 2 3 3 3 3 3 2 0 2 2
20 19 19 20 20 19 20 19 19 19 20 20 21 20 19 18 17 16 15 15 14 14 13 12 12 11 10 9 8 7 7 6 5 6 6 5 4 3 3 3 2 2 3 4 3 4 5 5 5 5 6 6 5 5 6 6 5 5 6 6 4 4 7 7 4 1 5 4 2 2 2 1 3 3 3 3 4 4 4 3 4 4 3 2 1
19 20 19 19 19 20 20 19 19 20 20 20 21 20 19 18 18 17 16 15 15 14 13 13 12 12 10 9 8 7 7 6 6 6 6 6 5 4 3 3 2 1 2 3 4 4 4 4 4 4 5 5 4 4 5 5 4 5 5 6 5 4 6 7 4 1 5 4 1 1 0 2 3 3 3 2 2 3 4 3 4 4 4 4 4
20 20 20 20 20 20 20 20 20 21 20 20 22 21 20 19 18 18 17 16 15 15 14 13 12 12 10 9 8 7 7 6 6 6 6 6 6 5 4 4 3 1 1 2 3 3 3 3 3 3 5 4 3 4 3 3 4 5 5 6 6 4 4 6 4 1 1 2 1 3 3 2 2 2 2 3 2 2 2 2 3 4 4 4 5
20 20 20 20 21 20 20 21 21 21 21 21 23 22 21 20 19 18 18 16 15 15 14 13 12 11 10 9 8 8 7 7 6 6 6 7 6 5 5 4 3 2 1 1 2 3 2 3 2 3 4 3 3 3 3 4 4 5 5 6 6 3 3 3 1 1 2 1 1 3 3 1 1 2 3 4 3 3 3 2 3 4 5 5 6
21 21 20 21 21 21 21 20 21 22 21 20 22 22 20 20 19 17 17 16 15 15 14 13 12 11 10 8 8 8 8 7 7 7 7 7 6 5 5 4 3 2 1 1 1 2 1 2 2 3 4 4 4 4 4 5 5 6 7 6 4 3 2 2 3 2 1 2 3 2 3 4 6 8 8 7 7 7 6 3 3 3 4 5 6
21 21 20 21 21 21 21 21 21 22 20 19 20 20 19 18 17 16 16 16 15 15 14 13 12 11 10 9 9 8 8 8 8 7 7 7 7 6 5 4 3 2 1 1 1 1 1 1 2 3 3 4 4 5 5 6 5 6 7 5 4 3 2 5 4 3 3 5 6 4 5 7 9 11 12 11 11 10 9 9 6 3 3 5 6
20 21 21 21 22 22 22 22 21 21 20 18 19 19 18 17 17 16 16 16 15 15 15 14 13 12 10 10 10 9 9 8 8 8 8 8 7 6 6 5 3 2 2 1 1 0 1 1 2 2 3 3 3 5 6 6 6 5 5 5 5 4 5 6 7 7 7 7 7 5 6 9 11 11 12 12 11 10 11 12 10 8 7 7 7
21 22 22 22 22 22 22 21 21 21 20 18 18 18 19 19 18 18 17 17 17 16 16 16 15 13 12 11 11 10 10 9 9 8 8 8 8 7 7 6 5 4 4 2 2 1 1 1 2 2 3 3 4 5 5 5 6 5 6 7 5 5 5 7 8 8 8 6 5 6 8 10 11 11 13 12 11 12 13 14 13 12 12 11 9
21 21 22 22 21 21 22 21 20 21 20 19 19 19 20 21 20 20 20 21 20 20 18 17 15 14 12 11 11 11 10 10 10 9 9 9 8 8 7 7 7 6 5 2 2 2 1 1 1 2 3 3 4 4 5 5 6 5 6 7 6 6 6 7 6 6 9 5 3 6 7 9 9 10 13 12 11 13 13 12 13 13 13 12 10
20 19 20 21 21 19 21 21 21 21 21 20 20 20 20 21 21 21 20 21 20 19 17 15 14 13 11 12 13 12 11 11 11 10 10 10 9 9 8 8 8 7 5 3 2 2 2 1 1 2 3 3 3 4 5 5 6 6 7 8 7 6 7 6 6 6 8 5 1 4 5 5 7 9 12 12 11 12 11 10 11 12 11 10 9
19 19 19 21 22 20 20 21 21 21 22 21 21 21 20 21 21 20 19 18 18 16 15 14 13 13 12 13 14 14 13 12 11 11 11 11 11 10 10 9 9 8 6 5 3 3 3 2 1 1 3 3 3 4 4 5 6 6 6 8 7 6 7 6 5 5 6 5 2 1 2 3 4 7 10 11 9 10 9 9 10 11 10 9 8
18 19 20 21 22 21 19 19 20 21 21 22 22 21 20 20 20 20 19 18 17 16 15 15 14 13 13 14 14 14 14 13 12 12 13 13 12 12 12 11 10 9 8 6 5 4 4 3 2 2 2 2 2 4 4 4 6 6 6 7 7 6 7 6 5 4 5 4 3 1 1 3 4 5 7 9 8 7 7 8 9 9 8 7 7
18 18 19 20 21 20 19 19 20 20 21 22 23 23 21 20 20 20 19 18 17 17 17 17 16 14 14 14 15 15 15 14 13 13 13 14 14 13 13 12 11 10 9 8 6 5 4 4 3 2 2 2 2 4 5 5 6 7 6 7 8 8 7 6 6 5 5 3 2 4 5 4 3 4 6 7 7 6 7 8 8 8 8 7 6
18 18 18 21 22 22 21 20 20 20 21 22 23 23 23 22 21 20 19 18 18 17 17 18 18 16 15 14 14 14 15 15 14 14 14 14 14 14 14 14 13 12 11 9 7 6 5 4 4 4 3 2 1 3 6 6 7 8 8 7 8 9 8 7 6 5 5 4 3 6 8 8 6 4 7 8 9 8 8 9 10 9 8 7 5
20 19 20 21 23 24 22 20 21 21 21 22 23 23 24 23 22 20 19 19 18 18 17 18 18 16 15 14 12 13 15 15 15 15 14 14 14 15 15 15 14 13 12 11 9 7 7 6 6 5 5 4 2 3 5 7 8 8 8 8 8 8 9 8 7 6 6 6 5 5 8 9 7 5 7 10 10 9 9 10 10 8 7 7 6
Wind_Direction
143 140 140 138 136 134 132 130 127 127 128 128 127 125 122 118 114 112 112 112 113 111 109 106 103 102 100 100 101 104 106 107 108 106 106 105 104 104 103 103 102 97 94 93 87 82 78 76 76 71 63 54 49 51 54 67 81 84 94 103 105 111 119 128 138 149 156 160 166 170 172 173 177 182 184 182 180 177 182 197 201 176 114 110 99
143 141 140 138 136 135 134 131 129 131 131 130 129 126 121 116 114 113 113 114 115 112 108 106 104 101 98 100 101 102 102 103 103 103 105 103 103 103 102 101 97 92 91 89 86 84 81 80 78 71 64 57 53 54 64 82 90 89 97 102 105 111 121 128 129 134 140 143 153 157 157 159 162 167 169 169 170 171 178 189 184 168 147 158 158
144 143 140 138 137 138 135 132 132 133 133 131 129 125 120 116 114 113 115 116 114 111 109 107 102 99 99 100 100 100 101 102 103 103 103 102 102 101 100 98 96 94 90 88 88 90 89 86 79 74 67 60 56 58 75 91 93 94 99 101 103 107 114 121 121 122 125 125 131 139 145 146 149 150 151 156 159 164 173 178 175 171 170 176 171
146 145 142 138 137 138 135 134 135 135 133 132 128 124 119 116 115 115 117 115 113 112 109 105 101 101 101 100 100 100 101 101 102 103 102 103 104 102 100 97 96 96 94 92 92 94 92 88 81 75 68 62 58 62 83 94 94 97 101 101 102 104 106 110 110 108 109 111 113 118 131 137 141 143 144 149 149 154 163 168 167 166 168 164 146
147 146 144 142 139 138 137 137 137 136 135 131 128 123 119 116 116 116 115 114 113 111 107 105 105 105 104 103 102 101 102 101 101 102 103 104 103 102 101 100 100 97 97 96 96 95 89 87 81 74 67 64 61 66 87 98 96 99 101 102 103 104 103 102 103 103 103 103 105 112 127 131 132 137 139 144 144 143 149 152 151 148 153 149 128
149 147 146 146 143 142 140 139 138 137 135 131 127 122 118 117 118 117 115 115 112 109 108 107 107 108 107 105 104 103 103 103 104 103 103 101 99 98 98 99 101 101 99 96 92 90 88 87 81 75 70 67 65 70 89 101 100 100 101 103 104 103 102 102 104 104 102 99 102 109 120 124 123 128 131 136 138 137 141 141 139 137 141 143 128
151 150 148 148 146 145 142 139 139 138 135 131 126 121 120 120 120 118 115 114 111 110 109 109 110 110 109 106 104 104 104 104 103 102 100 99 97 96 97 96 97 99 99 96 90 88 87 87 83 78 75 72 69 72 88 102 104 103 103 105 106 104 103 102 102 102 100 98 97 104 110 114 115 121 126 129 135 137 140 139 136 134 135 138 126
153 152 150 150 148 145 142 140 140 139 136 131 126 123 123 124 122 119 117 115 113 112 111 112 113 112 109 106 104 102 102 102 101 100 99 98 97 97 95 94 94 95 95 94 91 89 87 87 85 80 77 74 73 73 83 98 105 105 104 106 106 104 101 97 96 95 93 91 91 100 103 101 104 113 122 128 135 138 140 137 133 132 132 134 127
154 154 152 152 148 145 142 141 142 140 136 131 128 127 126 126 124 122 119 117 115 114 114 116 115 112 108 105 103 102 101 101 100 100 100 100 100 99 95 93 92 91 90 90 89 88 87 88 87 82 79 77 75 74 80 92 101 102 102 102 100 99 96 94 92 89 88 88 91 96 96 92 96 106 114 122 130 134 138 136 133 134 131 134 136
155 155 154 153 149 147 145 144 144 141 136 133 131 129 128 127 126 124 121 119 116 115 116 116 113 110 106 103 102 102 102 102 102 101 102 102 101 98 95 92 91 90 89 88 88 87 87 88 88 84 82 80 79 77 79 87 96 99 99 96 93 94 94 94 91 87 89 89 89 92 91 89 91 97 104 111 120 128 136 137 138 137 131 135 143
156 155 154 153 151 149 148 147 146 142 138 136 132 130 129 129 128 124 121 118 116 115 115 113 110 106 103 102 101 102 103 103 103 102 100 99 98 96 94 93 92 91 89 89 88 87 86 86 86 85 83 83 83 80 79 82 90 96 97 92 89 91 92 93 94 91 89 86 86 90 91 90 88 91 96 100 107 116 128 136 140 138 133 138 144
157 156 155 154 153 151 150 149 147 143 140 136 132 132 131 130 128 123 120 117 115 115 114 111 108 104 102 100 100 101 102 102 102 100 99 98 97 96 95 94 92 91 89 88 88 86 84 83 84 85 85 84 84 82 80 80 83 90 93 91 87 88 92 95 98 96 92 89 87 89 91 92 92 92 94 95 96 102 113 126 137 141 143 147 149
158 157 156 156 156 153 153 152 149 145 140 137 134 133 132 131 127 122 119 116 116 116 114 111 107 103 101 100 100 101 101 101 100 99 97 96 95 95 94 93 91 91 89 88 87 86 84 83 83 84 84 84 85 84 83 83 81 83 87 89 87 86 89 94 99 101 99 95 90 88 89 91 91 92 93 93 92 94 100 109 122 132 139 141 140
160 158 158 158 158 155 155 154 151 147 141 138 137 135 133 130 127 123 119 118 119 118 115 110 106 102 100 100 99 100 100 100 99 98 96 94 93 92 90 90 89 89 89 88 88 89 87 86 85 86 86 86 87 87 85 86 85 83 83 85 87 89 89 89 93 99 100 97 93 90 90 90 88 87 90 91 90 90 94 99 105 111 116 121 125
162 160 160 160 160 158 158 157 153 149 144 142 139 137 134 131 127 123 120 121 123 120 116 110 104 102 100 100 99 99 100 100 100 99 97 95 92 90 88 87 87 87 87 88 89 89 90 89 89 91 92 92 91 91 90 91 92 91 90 88 87 89 92 90 90 95 98 95 93 95 96 96 90 87 88 88 87 87 91 97 102 104 106 109 112
164 164 162 162 162 161 161 159 156 152 147 146 142 137 134 132 127 124 124 125 125 123 117 110 105 103 103 102 102 102 103 103 102 100 98 95 91 88 87 87 87 89 89 89 89 88 88 88 89 91 95 98 100 99 98 95 94 94 94 93 89 86 90 92 93 95 96 94 94 96 101 102 95 89 87 85 84 85 90 100 107 111 112 109 109
166 167 166 165 164 165 164 161 159 155 151 149 143 138 135 132 129 126 127 129 129 126 119 112 107 105 105 105 105 107 107 106 105 103 100 96 93 89 87 87 87 90 91 90 89 88 86 85 85 87 91 97 101 102 101 96 91 90 90 92 92 88 90 91 91 92 87 86 90 92 94 99 96 85 78 78 83 86 88 100 116 122 124 121 119
165 168 168 168 167 168 167 165 162 158 155 150 144 139 136 133 131 129 131 133 133 128 120 113 108 106 105 106 107 109 109 108 107 105 102 98 94 91 88 87 88 89 90 90 88 88 87 86 85 85 88 94 100 102 100 99 93 90 91 93 95 90 88 87 86 86 82 79 81 83 85 86 86 79 72 69 74 80 81 86 116 135 139 138 136
165 167 169 169 170 171 169 168 165 160 156 150 145 140 138 136 133 132 135 136 134 129 120 113 109 107 105 106 109 110 110 109 107 104 102 99 95 92 89 87 86 87 87 87 88 90 89 87 84 81 79 86 98 107 105 102 100 99 98 95 95 94 88 82 82 83 82 83 81 81 82 75 72 70 61 59 60 64 64 58 67 121 150 158 157
166 166 169 170 172 173 171 171 166 161 157 151 146 143 141 138 135 136 137 137 134 128 119 114 111 108 106 108 110 110 110 109 105 104 102 100 96 92 88 86 84 83 82 83 87 90 91 89 86 82 78 78 86 100 108 106 104 100 95 90 90 91 87 81 78 80 82 83 83 80 76 70 66 60 47 43 48 52 53 52 55 73 111 146 170
169 169 170 171 173 175 174 173 168 162 159 154 150 146 143 140 137 137 138 137 133 127 121 117 112 109 108 110 111 111 110 109 107 105 103 99 96 92 88 85 83 83 83 82 82 84 88 90 87 87 84 80 80 85 96 105 107 101 92 90 90 90 89 84 79 78 80 79 80 79 74 69 65 56 45 41 42 46 52 58 59 64 75 88 112
172 173 172 173 176 177 176 175 170 165 161 158 153 150 147 142 139 138 138 137 133 128 124 120 114 112 114 114 112 112 110 109 109 107 104 101 97 94 90 86 86 87 86 83 80 80 83 88 87 88 88 85 82 81 84 92 101 102 96 92 90 93 92 88 84 81 81 81 82 83 78 72 70 61 51 47 47 48 53 57 52 52 60 66 66
175 175 173 175 178 179 179 177 173 168 164 161 157 154 150 144 140 139 139 138 135 130 127 122 117 116 117 117 115 115 114 112 110 108 105 101 98 94 90 88 88 87 85 84 82 81 80 83 84 85 87 87 85 84 82 84 90 96 95 92 88 86 89 89 87 84 83 86 87 88 84 80 80 77 67 60 57 56 57 56 50 48 52 57 59
175 176 175 176 180 182 182 178 174 171 167 164 161 158 153 147 143 143 142 141 139 134 130 125 122 121 119 118 118 118 116 115 111 108 103 97 95 92 90 88 87 83 82 83 82 82 80 78 77 76 79 83 84 82 77 75 84 91 93 93 90 85 85 84 81 84 87 86 88 89 88 86 85 85 79 71 65 62 61 60 56 54 55 58 60
175 177 176 178 181 183 185 180 175 173 171 167 164 162 156 150 148 146 146 146 143 138 133 129 128 127 124 122 121 119 117 116 111 107 100 97 96 91 90 88 84 82 80 80 80 80 78 76 73 70 70 73 78 77 70 67 73 85 93 98 97 86 80 77 71 73 80 84 88 89 85 83 82 83 81 76 72 68 64 63 62 59 60 60 62
178 179 176 180 182 183 186 182 178 175 173 171 168 166 159 153 152 150 151 151 146 142 137 134 132 130 129 125 124 124 121 118 113 107 103 102 100 93 92 90 84 81 81 81 80 80 79 78 73 69 69 70 73 71 66 63 61 71 89 98 97 85 78 78 72 65 66 73 80 84 86 77 73 80 80 79 76 73 69 67 67 65 63 59 61
180 179 177 181 183 184 186 184 182 177 174 174 172 169 163 158 156 154 155 154 150 146 141 139 136 135 133 128 127 127 124 121 115 111 108 105 100 95 91 89 85 80 82 83 81 79 77 77 72 67 69 69 69 64 59 56 50 47 62 81 79 70 71 72 69 74 72 68 69 66 82 79 69 75 77 79 79 79 78 76 76 73 68 66 64
182 180 179 183 185 185 186 186 185 180 176 176 174 172 167 163 161 158 158 158 155 150 144 143 140 138 136 133 131 128 129 126 119 115 109 103 97 94 90 85 82 79 83 85 83 77 70 74 75 70 66 64 65 60 50 43 39 31 34 59 65 54 54 59 56 67 79 77 77 68 76 112 92 79 77 78 79 80 82 81 82 77 71 71 67
184 183 183 184 184 185 187 188 187 182 179 178 178 176 172 167 165 163 162 162 159 153 149 146 141 142 139 137 134 131 134 124 116 116 107 102 97 93 92 88 84 84 86 84 81 76 68 67 68 67 64 59 55 52 47 39 36 29 24 43 62 54 47 56 59 59 72 73 70 63 69 126 132 100 86 75 72 71 73 75 74 73 67 65 67
186 186 188 186 183 185 188 189 188 185 183 181 181 180 176 172 168 167 167 167 163 155 153 148 143 144 141 138 134 132 131 118 114 115 107 106 101 96 95 93 93 92 89 83 78 75 68 64 62 59 57 54 48 46 43 34 31 28 25 33 48 46 36 44 55 60 75 73 65 62 64 103 132 125 102 73 62 62 59 62 64 66 61 58 61
190 189 190 189 185 185 188 190 189 188 187 184 185 184 180 176 172 171 172 171 166 159 155 151 146 145 144 141 136 132 129 121 118 111 106 106 102 102 101 97 98 92 87 83 76 71 68 69 63 55 56 51 47 47 38 25 22 23 30 38 36 28 29 38 46 57 81 78 78 84 78 95 118 135 132 88 71 75 64 62 61 59 55 55 60
194 193 192 192 188 186 189 190 191 190 190 187 188 188 183 180 176 175 177 173 168 164 158 151 148 149 148 146 138 133 133 123 115 108 108 111 107 108 107 101 95 88 83 76 69 61 64 70 58 51 60 55 49 53 43 26 21 23 33 42 33 19 20 32 40 49 76 88 90 92 90 97 106 119 133 124 93 88 86 83 70 57 53 53 57
193 195 195 195 190 189 190 190 194 193 192 191 190 192 187 183 180 178 180 176 170 167 161 154 152 155 156 151 144 144 145 129 118 114 113 118 114 109 108 107 100 86 74 67 66 55 58 67 56 47 59 57 53 55 48 35 29 28 29 34 41 28 359 4 33 56 77 98 94 83 92 95 89 88 89 85 85 85 98 105 77 71 74 69 57
193 196 196 197 193 192 192 192 196 196 196 193 191 194 191 186 184 181 181 179 175 171 166 159 156 161 164 160 155 155 154 144 140 133 125 126 120 111 113 114 108 94 81 68 64 56 53 58 54 46 50 55 53 49 45 34 29 34 26 25 54 53 342 343 25 56 82 118 111 90 94 89 78 79 83 78 79 89 92 78 28 212 178 145 107
195 197 195 196 196 194 193 194 197 198 198 195 193 195 194 190 187 184 183 182 180 177 173 165 160 164 168 168 165 162 161 157 157 151 146 147 136 127 124 113 109 101 88 73 59 56 53 52 53 48 44 44 44 47 43 28 23 28 19 21 46 32 333 330 9 39 84 135 131 106 84 85 85 87 95 83 77 87 90 80 62 259 230 222 211
198 198 197 196 198 196 194 196 198 200 200 197 195 197 195 193 190 187 185 186 185 182 180 171 166 169 171 172 173 169 169 167 169 171 167 164 154 145 135 117 113 96 79 73 61 57 56 49 49 48 44 39 36 39 38 33 24 11 2 11 24 356 336 329 348 34 133 161 153 141 126 107 94 88 86 65 50 46 59 65 51 35 292 255 257
203 201 199 200 200 198 196 197 199 203 203 199 198 198 197 195 193 191 188 188 189 185 184 177 170 173 176 177 178 177 175 176 182 183 180 176 169 160 149 138 132 92 71 72 54 45 49 46 44 44 47 46 34 26 25 26 17 358 354 351 347 349 338 328 332 109 148 151 152 169 179 85 55 49 40 37 27 17 22 27 31 46 63 64 14
207 205 203 204 203 201 199 197 198 204 206 202 200 200 198 197 196 193 191 191 191 188 187 183 176 175 179 181 179 180 180 180 189 190 186 181 174 172 168 163 156 111 68 72 58 42 43 44 41 37 48 53 37 24 21 20 11 355 347 331 331 356 341 326 326 131 142 142 204 260 292 26 34 27 356 346 5 8 12 10 8 24 43 52 44
207 208 206 206 206 204 202 198 198 205 209 204 202 202 200 199 199 195 192 192 191 191 189 185 181 179 180 185 180 177 180 182 191 193 190 184 175 179 184 181 171 130 69 71 69 56 42 29 26 34 48 53 39 29 20 19 14 352 341 325 329 352 332 321 333 11 140 148 253 294 321 333 334 3 343 323 330 339 350 358 348 346 355 11 15
209 211 208 207 208 206 204 201 200 206 210 206 204 204 201 200 200 196 193 193 191 192 192 187 187 183 179 185 185 180 180 180 192 197 193 190 181 184 191 183 174 154 110 77 69 68 55 20 23 46 51 51 30 17 3 7 15 358 346 334 334 339 317 338 27 273 257 223 277 296 305 344 75 54 31 357 352 346 329 302 308 330 339 345 348
211 213 211 209 209 207 206 204 201 207 212 208 206 205 201 199 200 196 193 194 193 193 194 193 193 189 181 187 190 184 185 184 193 200 197 197 189 190 197 189 185 182 155 111 49 56 68 13 30 56 51 47 21 356 353 3 16 11 359 347 344 338 324 65 100 225 261 308 314 338 9 44 57 57 50 32 26 22 11 1 327 326 333 338 343
211 215 215 210 211 209 208 207 204 207 212 211 209 207 202 200 201 198 195 196 197 195 197 199 201 199 187 190 196 189 190 191 196 203 204 203 195 194 201 196 200 210 194 186 252 34 96 47 46 56 36 30 4 345 353 7 23 18 10 7 13 34 76 93 117 154 85 13 343 8 24 34 41 49 49 37 35 35 32 40 35 16 356 349 352
214 217 217 213 213 212 210 209 206 208 211 211 211 208 203 201 200 200 199 200 202 200 202 204 208 209 192 190 203 199 196 198 202 207 209 207 199 198 205 203 201 218 225 189 178 124 112 93 60 52 25 21 349 342 354 14 32 29 36 42 33 57 89 89 109 131 91 31 10 19 22 38 41 44 48 35 39 51 50 53 53 52 51 38 30
217 216 216 215 213 213 212 210 207 209 212 210 211 209 203 201 200 199 199 203 206 205 206 206 209 213 199 192 206 208 202 205 208 209 211 211 206 203 208 209 206 217 231 206 169 178 158 106 75 61 31 18 348 349 4 19 36 37 52 60 52 66 82 84 101 116 92 54 28 26 18 24 24 32 45 36 38 56 58 61 61 58 54 49 46
217 214 214 216 215 212 212 212 210 210 213 211 211 211 204 201 201 199 199 201 204 205 206 207 211 214 205 197 208 213 208 209 211 212 214 215 214 212 213 218 217 220 235 233 201 190 169 142 93 73 40 21 357 9 21 25 38 42 53 64 59 60 72 89 103 98 91 89 34 36 29 15 8 20 40 40 39 48 52 59 65 61 52 46 45
214 211 211 216 219 216 211 213 212 211 214 213 211 212 207 204 203 201 202 202 204 206 207 211 217 219 211 202 210 217 212 212 214 214 216 217 219 218 218 224 224 224 233 236 221 195 165 186 137 77 51 44 21 27 33 34 46 45 52 65 64 58 62 85 106 96 93 106 21 30 38 20 3 8 32 42 38 39 43 50 60 62 50 43 49
210 209 210 215 219 220 216 213 213 212 214 215 214 213 209 206 206 205 206 207 206 209 213 217 220 224 220 207 210 219 218 215 217 216 216 218 220 219 217 222 226 226 229 230 222 202 189 204 189 111 74 64 50 51 52 50 61 60 60 70 72 65 62 73 99 108 107 126 181 320 22 34 7 1 30 44 34 34 48 52 55 61 52 42 49
208 207 207 210 216 222 221 217 216 214 213 215 216 216 213 208 208 208 209 210 209 208 215 220 221 223 224 215 210 219 222 217 219 219 217 218 219 219 218 218 223 225 226 228 222 204 195 200 195 143 99 70 51 76 86 75 78 80 77 82 83 77 75 77 85 102 118 136 168 173 83 57 20 358 22 41 40 42 58 60 55 60 61 50 46
201 200 200 204 212 220 224 221 220 218 214 214 216 217 216 212 212 213 212 214 214 211 213 220 222 219 223 220 208 213 222 220 218 220 219 219 220 221 220 217 219 223 225 227 223 211 204 201 196 171 129 98 51 83 101 105 98 96 91 87 86 83 84 82 78 83 100 116 95 75 87 84 45 355 3 36 48 47 54 61 51 41 51 57 44
194 192 195 199 206 213 220 222 221 221 218 215 216 217 218 216 215 215 215 216 219 217 213 218 222 217 218 221 207 205 219 222 219 219 220 221 222 223 223 220 219 221 225 228 226 221 217 210 200 182 156 148 95 89 107 115 109 102 98 92 85 86 87 83 81 80 86 92 65 55 67 76 69 20 10 33 47 44 42 50 47 30 31 50 55
197 194 194 196 202 208 214 219 221 222 221 218 216 216 218 219 218 217 219 219 221 222 218 219 224 220 218 223 214 204 214 224 222 217 218 222 224 224 224 224 221 220 223 226 226 226 229 223 209 187 172 177 174 129 124 122 115 106 103 98 88 86 88 85 87 86 80 83 75 52 49 56 65 38 12 23 35 39 35 39 48 40 26 41 63
Height
3177 3179 3180 3181 3183 3184 3185 3186 3187 3189 3190 3191 3192 3193 3194 3195 3196 3197 3198 3198 3199 3199 3200 3200 3201 3201 3202 3202 3203 3203 3204 3204 3204 3204 3205 3205 3205 3206 3206 3207 3208 3208 3209 3210 3210 3211 3211 3211 3211 3211 3211 3211 3210 3209 3209 3208 3208 3209 3209 3209 3210 3211 3212 3212 3213 3214 3214 3215 3216 3216 3217 3217 3218 3219 3220 3221 3222 3222 3223 3223 3224 3224 3225 3225 3225
3177 3179 3181 3182 3184 3185 3186 3188 3188 3190 3191 3192 3193 3194 3195 3196 3197 3198 3199 3199 3200 3200 3201 3201 3202 3202 3203 3203 3204 3204 3204 3205 3205 3205 3205 3206 3206 3206 3207 3207 3208 3209 3210 3211 3211 3211 3212 3212 3212 3212 3211 3211 3210 3210 3209 3209 3209 3210 3210 3211 3212 3212 3213 3213 3213 3214 3215 3216 3216 3217 3217 3217 3218 3219 3220 3221 3222 3222 3223 3223 3224 3224 3225 3226 3226
3178 3180 3182 3184 3185 3186 3187 3188 3189 3191 3192 3193 3194 3195 3196 3197 3198 3199 3199 3200 3201 3201 3202 3202 3203 3203 3204 3204 3204 3205 3205 3205 3206 3206 3206 3206 3207 3207 3207 3208 3209 3210 3211 3212 3212 3212 3212 3212 3212 3212 3212 3211 3211 3210 3209 3210 3210 3211 3211 3211 3212 3213 3213 3214 3214 3215 3216 3216 3217 3217 3217 3218 3218 3219 3220 3221 3222 3222 3223 3223 3224 3225 3225 3226 3226
3179 3181 3183 3184 3186 3187 3188 3189 3190 3192 3193 3194 3195 3196 3197 3198 3198 3199 3200 3201 3201 3202 3203 3203 3204 3204 3205 3205 3205 3205 3206 3206 3206 3207 3207 3207 3208 3208 3208 3209 3209 3210 3212 3212 3213 3213 3213 3213 3213 3212 3212 3212 3211 3211 3210 3211 3211 3212 3212 3212 3213 3213 3214 3214 3215 3216 3216 3217 3217 3218 3218 3218 3219 3219 3220 3221 3221 3222 3223 3224 3224 3225 3225 3226 3226
3180 3182 3183 3185 3186 3188 3189 3190 3191 3192 3194 3195 3196 3197 3198 3198 3199 3200 3201 3201 3202 3203 3204 3204 3205 3205 3206 3206 3206 3206 3206 3207 3207 3208 3208 3208 3209 3209 3209 3210 3210 3211 3212 3212 3213 3213 3213 3213 3213 3213 3213 3213 3212 3212 3212 3212 3212 3213 3213 3213 3213 3214 3215 3215 3216 3216 3217 3218 3218 3218 3219 3219 3219 3220 3220 3221 3222 3222 3223 3224 3224 3225 3226 3226 3226
3181 3183 3184 3186 3187 3188 3190 3191 3192 3193 3194 3195 3196 3197 3198 3199 3200 3201 3202 3202 3203 3204 3205 3205 3206 3206 3207 3207 3207 3207 3207 3208 3208 3209 3209 3210 3210 3210 3211 3211 3211 3211 3212 3213 3213 3214 3214 3214 3214 3214 3214 3213 3213 3213 3213 3213 3213 3214 3214 3214 3214 3215 3216 3216 3217 3217 3218 3218 3219 3219 3219 3219 3220 3220 3220 3221 3222 3223 3223 3224 3225 3225 3226 3226 3227
3183 3184 3185 3187 3188 3189 3190 3191 3193 3194 3195 3196 3197 3198 3199 3200 3201 3201 3202 3203 3204 3205 3205 3206 3207 3207 3207 3208 3208 3208 3208 3209 3209 3210 3210 3211 3211 3211 3212 3212 3212 3213 3213 3214 3214 3214 3214 3214 3215 3215 3215 3214 3214 3214 3214 3214 3215 3215 3216 3216 3216 3216 3217 3218 3218 3218 3219 3219 3219 3219 3220 3220 3220 3220 3220 3221 3222 3223 3224 3224 3225 3225 3226 3227 3227
3183 3185 3186 3187 3188 3190 3191 3192 3194 3195 3196 3197 3198 3199 3200 3201 3201 3202 3203 3204 3205 3205 3206 3207 3207 3208 3208 3208 3209 3209 3209 3210 3210 3211 3211 3212 3212 3212 3212 3213 3213 3214 3214 3214 3215 3215 3215 3215 3215 3215 3215 3215 3215 3215 3215 3215 3216 3216 3217 3217 3217 3218 3218 3219 3219 3219 3219 3220 3220 3220 3220 3220 3221 3221 3221 3221 3222 3223 3224 3225 3225 3226 3227 3227 3227
3184 3186 3187 3188 3189 3191 3192 3193 3194 3196 3197 3198 3199 3200 3201 3201 3202 3203 3204 3205 3205 3206 3207 3208 3208 3209 3209 3209 3210 3210 3210 3211 3211 3212 3212 3213 3213 3213 3214 3214 3214 3214 3215 3215 3215 3216 3216 3216 3216 3216 3216 3217 3216 3216 3216 3216 3217 3217 3217 3218 3218 3219 3219 3220 3220 3220 3220 3220 3221 3221 3221 3221 3221 3222 3222 3222 3223 3223 3224 3225 3225 3226 3227 3227 3227
3185 3186 3188 3189 3190 3191 3193 3194 3195 3197 3198 3199 3200 3201 3201 3202 3203 3204 3205 3206 3206 3207 3208 3209 3209 3209 3210 3210 3211 3211 3211 3212 3212 3213 3213 3214 3214 3214 3215 3215 3215 3215 3215 3216 3216 3216 3217 3217 3217 3217 3217 3218 3217 3217 3217 3217 3218 3218 3218 3219 3219 3219 3220 3220 3221 3221 3222 3222 3221 3221 3222 3222 3222 3222 3222 3223 3223 3224 3225 3225 3226 3226 3227 3227 3227
3185 3187 3188 3189 3191 3192 3193 3195 3196 3197 3199 3200 3200 3201 3202 3203 3204 3205 3206 3206 3207 3208 3209 3209 3210 3210 3211 3211 3211 3212 3212 3213 3213 3214 3214 3215 3215 3215 3216 3216 3216 3216 3216 3217 3217 3217 3218 3218 3218 3218 3218 3219 3218 3218 3218 3219 3219 3219 3219 3220 3220 3220 3221 3221 3221 3222 3222 3222 3222 3222 3222 3223 3223 3223 3223 3224 3224 3225 3225 3226 3226 3226 3227 3227 3227
3186 3187 3189 3190 3191 3193 3194 3196 3197 3198 3199 3200 3201 3202 3203 3204 3205 3206 3206 3207 3208 3209 3210 3210 3211 3211 3211 3212 3212 3213 3213 3214 3214 3214 3215 3215 3216 3216 3216 3216 3217 3217 3217 3217 3218 3218 3218 3219 3219 3219 3219 3219 3219 3219 3219 3220 3220 3220 3221 3221 3221 3221 3222 3222 3222 3223 3223 3223 3223 3223 3223 3223 3224 3224 3224 3225 3225 3226 3226 3226 3227 3227 3227 3227 3227
3186 3188 3189 3191 3192 3193 3195 3196 3198 3199 3200 3201 3202 3203 3204 3205 3206 3206 3207 3208 3209 3210 3211 3211 3212 3212 3212 3213 3213 3214 3214 3214 3215 3215 3215 3216 3216 3217 3217 3217 3217 3218 3218 3218 3218 3219 3219 3219 3219 3220 3220 3220 3220 3220 3220 3221 3221 3221 3221 3222 3222 3222 3223 3223 3223 3224 3224 3224 3224 3224 3224 3225 3225 3225 3225 3226 3226 3226 3227 3227 3227 3228 3228 3228 3228
3186 3188 3190 3191 3193 3194 3196 3197 3198 3199 3200 3201 3203 3204 3205 3206 3207 3207 3208 3209 3210 3211 3212 3212 3212 3213 3213 3214 3214 3214 3215 3215 3215 3216 3216 3217 3217 3217 3217 3218 3218 3218 3219 3219 3219 3220 3220 3220 3220 3220 3220 3221 3221 3221 3221 3222 3222 3222 3222 3223 3223 3223 3224 3224 3224 3225 3225 3225 3225 3225 3225 3226 3226 3226 3226 3227 3227 3227 3227 3228 3228 3228 3228 3229 3229
3188 3189 3190 3192 3193 3194 3196 3198 3199 3200 3201 3202 3204 3205 3206 3207 3207 3208 3209 3211 3212 3212 3213 3213 3213 3214 3214 3214 3215 3215 3216 3216 3216 3217 3217 3217 3218 3218 3218 3218 3219 3219 3219 3220 3220 3220 3221 3221 3221 3221 3221 3221 3222 3222 3222 3222 3223 3223 3223 3223 3224 3224 3225 3225 3225 3225 3226 3226 3226 3226 3226 3227 3227 3227 3227 3227 3227 3228 3228 3228 3228 3229 3229 3229 3230
3189 3190 3191 3193 3194 3195 3197 3198 3200 3201 3202 3203 3204 3206 3207 3207 3208 3209 3210 3212 3213 3213 3214 3214 3214 3215 3215 3215 3216 3216 3216 3217 3217 3218 3218 3218 3218 3218 3219 3219 3219 3219 3220 3220 3221 3221 3221 3222 3222 3222 3222 3222 3222 3222 3222 3223 3223 3223 3223 3224 3224 3225 3225 3226 3226 3226 3226 3226 3226 3227 3227 3227 3228 3228 3228 3228 3228 3228 3228 3229 3229 3229 3230 3230 3230
3189 3191 3192 3193 3195 3196 3197 3199 3200 3201 3202 3204 3205 3206 3207 3208 3209 3210 3211 3213 3214 3214 3215 3215 3215 3215 3216 3216 3216 3217 3217 3218 3218 3218 3219 3219 3219 3219 3219 3219 3220 3220 3220 3221 3221 3222 3222 3222 3223 3223 3223 3223 3223 3223 3223 3223 3224 3224 3224 3225 3225 3225 3226 3226 3227 3227 3227 3227 3227 3227 3228 3228 3229 3229 3229 3228 3228 3229 3229 3229 3229 3229 3230 3230 3231
3190 3192 3193 3194 3195 3197 3198 3199 3201 3202 3203 3204 3206 3207 3208 3209 3210 3211 3212 3214 3215 3215 3215 3216 3216 3216 3217 3217 3217 3218 3218 3219 3219 3219 3219 3219 3220 3220 3220 3221 3221 3221 3221 3222 3222 3223 3223 3223 3223 3223 3223 3223 3223 3223 3223 3224 3224 3225 3225 3226 3226 3227 3227 3227 3227 3227 3227 3228 3228 3228 3229 3229 3230 3230 3229 3229 3229 3229 3229 3230 3230 3230 3230 3230 3231
3190 3192 3194 3195 3196 3197 3199 3200 3201 3202 3204 3205 3206 3207 3209 3210 3211 3212 3213 3214 3215 3216 3216 3216 3217 3217 3217 3218 3218 3219 3219 3220 3220 3220 3220 3221 3221 3221 3222 3222 3222 3223 3223 3223 3223 3223 3224 3224 3224 3224 3224 3224 3224 3224 3224 3225 3225 3226 3226 3227 3227 3228 3228 3228 3228 3228 3228 3228 3229 3229 3230 3230 3230 3230 3230 3230 3230 3230 3230 3230 3230 3230 3230 3231 3231
3190 3192 3194 3195 3197 3198 3200 3201 3202 3203 3204 3206 3207 3208 3209 3211 3211 3213 3214 3215 3216 3216 3216 3217 3217 3218 3218 3219 3219 3220 3220 3220 3221 3221 3221 3222 3222 3223 3223 3224 3224 3224 3224 3224 3224 3224 3224 3225 3225 3225 3225 3225 3225 3225 3225 3225 3226 3226 3227 3227 3228 3228 3228 3228 3228 3229 3229 3229 3229 3230 3230 3231 3231 3231 3231 3231 3231 3230 3230 3231 3231 3231 3231 3231 3232
3190 3192 3194 3196 3197 3199 3200 3201 3202 3204 3205 3206 3208 3209 3210 3211 3212 3213 3215 3216 3216 3217 3217 3217 3218 3218 3219 3219 3220 3221 3221 3221 3221 3222 3223 3223 3223 3224 3224 3225 3225 3225 3225 3225 3225 3225 3226 3226 3226 3226 3226 3226 3226 3226 3226 3226 3226 3226 3227 3227 3228 3228 3229 3229 3229 3229 3229 3230 3230 3230 3231 3231 3231 3232 3232 3231 3231 3231 3231 3231 3232 3232 3232 3232 3232
3190 3192 3194 3196 3198 3199 3200 3202 3203 3204 3205 3207 3208 3210 3211 3212 3213 3214 3215 3216 3217 3217 3218 3218 3218 3219 3220 3220 3221 3221 3221 3222 3222 3223 3224 3224 3224 3225 3225 3225 3225 3225 3226 3226 3226 3226 3227 3227 3227 3227 3227 3227 3227 3227 3227 3227 3227 3227 3227 3228 3228 3229 3229 3229 3230 3230 3230 3230 3231 3231 3231 3232 3232 3232 3232 3232 3232 3231 3232 3232 3232 3232 3233 3233 3233
3190 3191 3193 3196 3198 3199 3200 3202 3203 3204 3206 3207 3209 3210 3211 3212 3213 3215 3216 3217 3217 3218 3218 3219 3219 3220 3220 3221 3221 3222 3222 3223 3223 3224 3224 3225 3225 3226 3226 3226 3226 3226 3227 3227 3227 3227 3227 3227 3228 3228 3228 3228 3228 3228 3228 3228 3227 3227 3227 3228 3229 3229 3229 3230 3230 3230 3231 3231 3231 3232 3232 3232 3233 3233 3233 3233 3232 3232 3233 3233 3233 3233 3233 3233 3233
3190 3192 3194 3196 3197 3199 3201 3202 3203 3205 3206 3207 3209 3210 3212 3213 3214 3215 3216 3217 3218 3218 3219 3219 3220 3221 3221 3221 3222 3222 3223 3223 3224 3225 3225 3226 3226 3227 3227 3227 3227 3227 3228 3228 3228 3228 3228 3228 3228 3228 3228 3228 3228 3229 3229 3229 3228 3228 3228 3228 3229 3230 3230 3231 3231 3231 3232 3232 3232 3232 3233 3233 3233 3233 3233 3233 3233 3233 3234 3234 3234 3234 3234 3234 3234
3191 3192 3194 3196 3197 3199 3201 3202 3204 3205 3206 3208 3209 3211 3212 3213 3214 3216 3217 3217 3218 3219 3219 3220 3221 3221 3222 3222 3222 3223 3223 3224 3225 3225 3226 3227 3227 3227 3227 3228 3228 3228 3229 3229 3229 3229 3229 3229 3229 3229 3229 3229 3229 3229 3229 3229 3229 3229 3229 3229 3230 3230 3231 3231 3232 3232 3232 3233 3233 3233 3233 3234 3234 3234 3234 3234 3234 3234 3235 3235 3235 3235 3235 3235 3234
3191 3192 3194 3196 3197 3199 3201 3202 3204 3205 3207 3208 3210 3211 3212 3213 3215 3216 3217 3218 3219 3219 3220 3220 3221 3222 3222 3223 3223 3224 3224 3225 3225 3226 3227 3227 3228 3228 3228 3228 3229 3229 3229 3230 3230 3230 3230 3230 3230 3230 3229 3230 3230 3230 3230 3230 3230 3230 3230 3229 3230 3230 3231 3231 3232 3232 3233 3233 3233 3234 3234 3234 3234 3234 3234 3234 3234 3235 3235 3236 3236 3236 3236 3235 3235
3190 3192 3194 3196 3197 3199 3200 3202 3204 3205 3207 3208 3210 3211 3212 3214 3215 3216 3217 3218 3219 3220 3220 3221 3221 3222 3223 3223 3224 3224 3225 3225 3226 3227 3227 3228 3228 3229 3229 3229 3230 3230 3230 3230 3230 3230 3230 3230 3230 3230 3230 3230 3230 3230 3231 3231 3230 3230 3230 3230 3229 3230 3231 3231 3232 3233 3233 3233 3234 3234 3234 3234 3235 3235 3235 3235 3235 3235 3236 3236 3236 3236 3236 3236 3236
3191 3192 3194 3196 3197 3199 3200 3202 3204 3205 3207 3208 3210 3211 3212 3214 3215 3216 3218 3219 3219 3220 3221 3221 3222 3223 3223 3224 3224 3225 3225 3226 3226 3227 3228 3228 3229 3230 3230 3230 3231 3231 3231 3231 3231 3231 3231 3231 3231 3231 3231 3230 3230 3230 3230 3230 3230 3230 3230 3230 3230 3230 3231 3232 3232 3233 3233 3234 3234 3234 3234 3234 3235 3235 3235 3235 3235 3236 3236 3236 3236 3236 3236 3236 3236
3191 3192 3194 3195 3197 3199 3200 3202 3204 3205 3207 3208 3210 3211 3212 3214 3215 3217 3218 3219 3219 3220 3221 3221 3222 3223 3223 3224 3225 3225 3226 3226 3226 3227 3228 3228 3229 3230 3230 3231 3231 3231 3232 3232 3232 3232 3232 3232 3232 3232 3231 3231 3231 3231 3231 3231 3231 3230 3230 3230 3230 3231 3232 3232 3232 3233 3234 3234 3234 3234 3234 3234 3235 3235 3236 3236 3236 3236 3236 3236 3236 3236 3237 3237 3237
3191 3192 3194 3195 3197 3198 3200 3202 3204 3205 3207 3208 3209 3211 3212 3214 3216 3217 3218 3219 3219 3220 3221 3222 3222 3223 3224 3224 3225 3226 3226 3226 3227 3228 3229 3229 3230 3231 3231 3232 3232 3232 3232 3233 3233 3233 3232 3233 3233 3232 3232 3232 3232 3232 3231 3232 3232 3231 3230 3230 3230 3231 3232 3232 3233 3233 3234 3234 3234 3234 3234 3234 3235 3235 3236 3236 3236 3236 3236 3237 3237 3237 3237 3237 3237
3190 3192 3193 3195 3196 3198 3200 3201 3203 3205 3206 3208 3209 3211 3213 3214 3216 3217 3218 3219 3219 3220 3221 3222 3222 3223 3224 3225 3225 3226 3226 3227 3228 3228 3229 3230 3230 3231 3232 3232 3233 3233 3233 3233 3234 3233 3233 3233 3233 3233 3233 3233 3233 3232 3232 3232 3232 3232 3231 3230 3230 3231 3232 3233 3233 3233 3234 3234 3234 3234 3234 3234 3234 3235 3236 3236 3236 3236 3236 3237 3237 3236 3237 3237 3237
3189 3191 3193 3194 3196 3198 3199 3201 3203 3204 3206 3208 3209 3210 3212 3214 3216 3217 3217 3218 3219 3220 3221 3222 3223 3224 3225 3225 3226 3226 3226 3227 3228 3229 3229 3230 3231 3232 3232 3233 3233 3233 3233 3234 3234 3233 3233 3234 3234 3234 3234 3234 3233 3233 3233 3233 3233 3232 3232 3231 3231 3230 3231 3233 3233 3233 3234 3234 3234 3234 3234 3234 3234 3235 3235 3236 3236 3236 3236 3236 3236 3236 3236 3237 3237
3189 3191 3192 3193 3195 3197 3198 3200 3202 3204 3205 3207 3209 3210 3212 3214 3215 3216 3217 3218 3219 3220 3221 3222 3223 3224 3225 3226 3227 3227 3227 3228 3228 3229 3230 3230 3231 3232 3232 3233 3233 3233 3233 3234 3234 3234 3234 3234 3235 3235 3235 3234 3234 3234 3234 3234 3234 3233 3233 3233 3232 3230 3230 3232 3233 3233 3234 3234 3234 3234 3234 3234 3234 3235 3235 3236 3236 3236 3236 3236 3236 3236 3236 3236 3237
3188 3190 3191 3193 3194 3196 3197 3199 3201 3203 3205 3207 3208 3210 3212 3213 3215 3216 3217 3218 3219 3220 3221 3222 3223 3224 3225 3226 3227 3228 3228 3229 3229 3230 3230 3231 3231 3232 3232 3233 3233 3234 3234 3234 3234 3234 3234 3235 3235 3235 3235 3235 3235 3235 3235 3234 3234 3234 3234 3234 3234 3232 3231 3232 3233 3233 3234 3234 3234 3234 3234 3234 3234 3235 3235 3236 3236 3235 3235 3235 3236 3236 3236 3236 3236
3188 3189 3190 3192 3194 3195 3197 3199 3201 3202 3204 3206 3208 3210 3211 3213 3214 3216 3217 3218 3219 3220 3221 3222 3223 3225 3226 3227 3227 3228 3229 3229 3230 3230 3231 3231 3232 3232 3233 3233 3234 3234 3235 3235 3235 3235 3235 3235 3235 3235 3235 3235 3235 3235 3235 3235 3235 3235 3235 3234 3234 3233 3232 3232 3233 3234 3235 3235 3235 3235 3234 3234 3234 3235 3235 3236 3236 3235 3235 3235 3235 3235 3235 3235 3235
3187 3189 3190 3191 3193 3194 3196 3198 3200 3202 3203 3205 3207 3209 3210 3212 3214 3215 3217 3218 3219 3220 3221 3222 3223 3225 3226 3227 3228 3229 3229 3230 3230 3231 3231 3232 3232 3233 3233 3234 3234 3234 3235 3235 3235 3235 3235 3235 3235 3235 3235 3235 3235 3235 3235 3235 3235 3235 3235 3235 3235 3234 3231 3232 3233 3234 3235 3235 3235 3234 3234 3234 3234 3235 3236 3236 3236 3235 3235 3235 3235 3235 3235 3235 3235
3186 3188 3189 3190 3192 3194 3195 3197 3199 3201 3203 3204 3206 3208 3210 3211 3213 3214 3216 3217 3218 3219 3220 3222 3223 3225 3226 3227 3228 3229 3229 3230 3230 3231 3232 3232 3233 3233 3233 3234 3234 3234 3235 3235 3235 3235 3235 3235 3235 3235 3235 3235 3235 3235 3235 3235 3236 3236 3235 3235 3235 3234 3232 3232 3233 3234 3235 3235 3235 3234 3234 3234 3234 3235 3236 3236 3236 3236 3235 3235 3235 3235 3235 3235 3235
3185 3187 3188 3190 3191 3193 3195 3196 3199 3200 3202 3203 3205 3207 3209 3210 3212 3214 3215 3216 3218 3219 3220 3221 3223 3224 3225 3226 3228 3228 3229 3230 3230 3231 3232 3232 3233 3233 3234 3234 3235 3235 3235 3235 3235 3235 3235 3235 3236 3236 3236 3236 3235 3236 3236 3236 3236 3236 3236 3235 3235 3235 3234 3232 3233 3234 3235 3235 3235 3234 3234 3235 3235 3236 3236 3236 3236 3236 3235 3235 3235 3235 3235 3235 3235
3184 3186 3187 3189 3190 3192 3194 3195 3198 3199 3201 3203 3204 3206 3208 3209 3211 3212 3214 3215 3217 3218 3220 3221 3222 3224 3225 3226 3227 3228 3229 3230 3230 3231 3231 3232 3233 3233 3234 3234 3235 3235 3235 3235 3235 3236 3236 3236 3236 3236 3236 3236 3236 3236 3236 3236 3236 3236 3236 3235 3235 3235 3235 3233 3233 3234 3234 3235 3235 3234 3235 3235 3236 3235 3235 3235 3235 3235 3235 3235 3235 3235 3235 3235 3235
3183 3184 3186 3187 3189 3191 3192 3194 3196 3198 3199 3201 3203 3204 3206 3208 3210 3211 3213 3215 3216 3218 3219 3220 3222 3223 3225 3226 3227 3228 3228 3229 3230 3231 3231 3232 3233 3233 3234 3234 3235 3235 3235 3235 3235 3235 3236 3236 3236 3236 3236 3236 3236 3236 3236 3236 3236 3236 3236 3235 3235 3235 3235 3235 3234 3234 3234 3235 3235 3235 3236 3236 3236 3236 3235 3234 3234 3234 3234 3235 3235 3235 3235 3235 3235
3181 3182 3184 3186 3187 3189 3191 3193 3195 3197 3198 3200 3202 3203 3205 3207 3209 3211 3213 3214 3215 3217 3218 3220 3221 3223 3224 3225 3226 3227 3228 3229 3230 3230 3231 3232 3232 3233 3233 3234 3234 3235 3235 3235 3235 3235 3236 3236 3236 3236 3236 3236 3236 3236 3236 3236 3236 3236 3236 3235 3235 3235 3235 3235 3235 3235 3235 3235 3235 3235 3236 3235 3235 3235 3235 3234 3233 3233 3234 3234 3234 3234 3235 3235 3235
3179 3180 3183 3184 3186 3188 3190 3192 3194 3195 3197 3199 3201 3203 3205 3206 3208 3210 3212 3214 3215 3216 3218 3219 3220 3222 3224 3225 3226 3227 3228 3228 3229 3230 3230 3231 3232 3233 3233 3234 3234 3235 3235 3235 3235 3235 3235 3236 3236 3236 3236 3236 3236 3236 3236 3236 3236 3237 3236 3235 3235 3235 3235 3235 3236 3235 3235 3235 3235 3235 3235 3235 3234 3235 3235 3235 3234 3234 3234 3234 3234 3234 3234 3234 3234
3177 3179 3181 3183 3184 3186 3188 3190 3193 3194 3196 3198 3200 3202 3204 3206 3208 3210 3212 3213 3214 3216 3217 3218 3219 3221 3223 3224 3225 3226 3227 3228 3229 3229 3230 3231 3232 3232 3233 3234 3234 3235 3235 3235 3235 3235 3235 3235 3236 3236 3236 3236 3236 3236 3236 3236 3237 3237 3237 3236 3235 3235 3235 3236 3236 3236 3235 3235 3235 3234 3234 3234 3234 3234 3235 3235 3235 3235 3234 3234 3234 3234 3235 3234 3234
3175 3177 3179 3181 3183 3184 3186 3188 3191 3193 3195 3197 3199 3201 3203 3205 3207 3208 3210 3212 3213 3214 3215 3217 3218 3219 3221 3223 3224 3225 3226 3227 3228 3229 3229 3230 3231 3232 3233 3233 3234 3234 3235 3235 3235 3235 3236 3236 3236 3236 3236 3237 3236 3236 3236 3236 3237 3237 3237 3236 3236 3235 3235 3235 3236 3235 3234 3235 3235 3234 3234 3234 3234 3234 3235 3235 3235 3235 3234 3234 3235 3235 3235 3235 3235
3173 3175 3177 3179 3181 3183 3185 3187 3190 3192 3194 3196 3198 3200 3202 3203 3205 3206 3208 3210 3211 3212 3213 3215 3217 3218 3220 3222 3223 3224 3225 3226 3227 3228 3229 3229 3230 3231 3232 3233 3233 3234 3234 3234 3235 3235 3236 3236 3236 3236 3237 3237 3237 3236 3236 3236 3236 3236 3236 3236 3236 3236 3235 3235 3235 3235 3234 3235 3235 3235 3235 3235 3235 3234 3235 3235 3235 3234 3234 3235 3235 3235 3235 3235 3235
3171 3174 3176 3178 3179 3182 3184 3186 3188 3191 3193 3195 3197 3199 3200 3202 3203 3205 3206 3208 3210 3211 3213 3215 3216 3217 3219 3221 3222 3223 3224 3225 3226 3227 3228 3229 3229 3230 3231 3232 3232 3233 3233 3234 3234 3235 3235 3236 3236 3236 3237 3237 3237 3237 3237 3237 3236 3236 3236 3236 3236 3236 3236 3235 3235 3235 3235 3235 3235 3235 3235 3236 3236 3235 3235 3235 3235 3235 3235 3235 3236 3236 3236 3236 3235
3170 3172 3174 3176 3178 3179 3182 3184 3187 3189 3192 3194 3195 3197 3199 3200 3202 3204 3206 3207 3209 3211 3213 3214 3215 3216 3218 3220 3221 3222 3223 3224 3225 3226 3227 3228 3229 3229 3230 3231 3232 3232 3233 3233 3234 3234 3235 3236 3236 3236 3237 3237 3237 3237 3237 3237 3237 3237 3237 3237 3237 3237 3236 3236 3236 3235 3235 3236 3236 3236 3237 3238 3237 3236 3236 3236 3236 3236 3236 3236 3235 3235 3236 3236 3235
3169 3170 3172 3174 3176 3178 3180 3183 3185 3187 3190 3192 3194 3196 3197 3199 3201 3203 3204 3206 3208 3210 3212 3213 3214 3215 3216 3218 3220 3220 3221 3223 3224 3225 3226 3227 3227 3228 3229 3230 3231 3232 3232 3233 3233 3234 3234 3235 3236 3236 3237 3237 3237 3237 3237 3237 3237 3237 3237 3237 3237 3237 3237 3236 3236 3236 3236 3236 3236 3237 3238 3238 3237 3236 3236 3237 3237 3238 3237 3236 3235 3236 3236 3236 3235
3167 3168 3170 3173 3175 3177 3179 3181 3183 3185 3188 3191 3192 3194 3196 3198 3200 3201 3203 3205 3206 3208 3210 3211 3212 3214 3215 3216 3218 3219 3220 3221 3222 3223 3224 3225 3226 3227 3228 3229 3230 3231 3231 3232 3233 3233 3234 3234 3235 3236 3236 3237 3237 3237 3238 3238 3238 3238 3238 3238 3238 3237 3237 3237 3237 3237 3237 3237 3237 3238 3238 3238 3237 3237 3236 3237 3237 3238 3237 3236 3235 3235 3235 3236 3236
3165 3167 3168 3170 3172 3174 3177 3179 3181 3183 3186 3188 3191 3192 3194 3196 3198 3200 3202 3203 3205 3206 3208 3209 3210 3212 3213 3214 3216 3218 3218 3219 3221 3222 3223 3224 3225 3226 3227 3228 3229 3230 3230 3231 3232 3232 3233 3234 3234 3235 3236 3237 3237 3237 3238 3238 3238 3238 3238 3239 3238 3238 3238 3238 3238 3238 3237 3237 3237 3237 3238 3238 3237 3237 3236 3237 3237 3237 3236 3236 3235 3234 3234 3236 3236
3162 3164 3166 3168 3170 3172 3174 3177 3179 3182 3184 3186 3189 3191 3193 3194 3196 3198 3200 3202 3203 3204 3206 3208 3209 3210 3212 3213 3214 3216 3217 3218 3219 3220 3221 3222 3223 3224 3225 3226 3227 3229 3229 3230 3231 3231 3232 3233 3234 3235 3236 3236 3237 3237 3238 3238 3238 3239 3239 3239 3239 3239 3238 3238 3238 3238 3238 3237 3237 3237 3237 3237 3237 3237 3236 3236 3237 3237 3236 3235 3235 3235 3235 3236 3236